Погода в Таламанке

Испания     41°44′13″N   1°58′35″E
темп.,
°C
ветер,
м/с
пор.,
м/с
влажн.,
%
обл.,
%
осадки,
мм/ч
давл.,
гПа
погр.,
м
20 мая, пт
пт2023:00+19юв1251100 0.0 1025103
02:00+18св114898 0.0 102423
05:00+17св21539 0.0 102522
08:00+20с114499 0.0 102566
11:00+27юз2325100 0.0 1025683
14:00+30ююз462089 0.0 10241444
17:00+30ююз5618100 0.0 10221326
20:00+27ююз342494 0.0 1022388
21 мая, сб
сб2123:00+21юв1135100 0.0 102437
02:00+19св114083 0.0 102422
05:00+18ссв114386 0.0 102314
08:00+20с113868 0.0 102366
11:00+27юз24237 0.0 1022769
14:00+32ююз451812 0.0 10201403
17:00+33ююз5516100 0.0 10181453
20:00+28ююв45226 0.0 1017321
22 мая, вс
вс2223:00+22в0030100 0.0 101836
02:00+21с1132100 0.0 101612
05:00+20с2235100 0.0 101512
08:00+22ссз113578 0.0 101447
11:00+30ююз221746 0.0 1013651
14:00+35ю571268 0.0 10121885
17:00+34ю691348 0.0 10101424
20:00+28ю4819100 0.0 1009492
23 мая, пн
пн2323:00+23юв122563 0.0 101163
02:00+21ссз112797 0.0 101020
05:00+20с22323 0.0 100933
08:00+21ю113441 0.0 1009146
11:00+26юз343674 0.0 10091193
14:00+30ююз572860 0.0 10082613
17:00+27ю764112 0.0 10071508
20:00+22ю5655100 0.0 1008627
24 мая, вт
вт2423:00+18ююв2371100 0.0 1010215
02:00+17з017513 0.0 1010112
05:00+16сз12829 0.1 1010109
08:00+17ссз128017 0.6 1011226
11:00+22юз235597 0.1 10101242
14:00+21ююз4560100 0.3 10101116
17:00+20ююв4569100 1.3 1009951
20:00+20ююв346729 2.4 1009807